Regional Weather Roundup
Issued by NWS

Home | Current Version | Previous Version | Text Only | Print | Product List | Glossary Off
Versions: 1 2 3 4 5 6 7 8 9 10 11 12 13 14 15 16 17 18 19 20 21 22 23 24 25 26 27 28 29 30 31 32 33 34 35 36 37 38 39 40 41 42 43 44 45 46 47 48 49 50

000
ASUS43 KIND 250909
RWRIN

WEATHER ROUNDUP FOR INDIANA
NATIONAL WEATHER SERVICE INDIANAPOLIS IN
500 AM EDT FRI JUL 25 2014

NOTE: "FAIR" INDICATES FEW OR NO CLOUDS BELOW 12,000 FEET WITH NO
SIGNIFICANT WEATHER AND/OR OBSTRUCTIONS TO VISIBILITY.

* - STATION DOES NOT REPORT WEATHER SUCH AS PRECIPITATION OR FOG.

+ - STATION NOT QUALITY CONTROLLED BY THE NATIONAL WEATHER SERVICE.
    USE DATA WITH CAUTION...ESPECIALLY DEWPOINT AND RELATIVE
    HUMIDITY OBSERVATIONS.

INZ001>003-010>013-019-020-251000-
NORTHWEST INDIANA

CITY           SKY/WX    TMP DP  RH WIND       PRES   REMARKS
GARY /AIRPORT/ CLEAR     54  52  92 CALM      30.07F
KNOX *+        CLEAR     49  47  92 CALM      30.08S
LA PORTE +     CLEAR     47  47 100 SE3       30.08F
MICHIGAN CITY+ CLEAR     46  46 100 CALM      30.07F
MONTICELLO +   CLEAR     51  51  99 CALM      30.08R
RENSSELAER +   CLEAR     50  50 100 CALM      30.09S
VALPARAISO     CLEAR     48  47  96 CALM      30.08F

$$

LMZ046-743>745-251000-
SOUTHERN LAKE MICHIGAN

STATION/POSITION TIME  TEMP WIND        PRES
                       AIR  DIR/SP/G
                 (UTC) (F)  (DEG/KT/KT) (MB)
MICHIGAN CITY    0900   57  200/  4/  5   N/A

$$

INZ004-005-014>016-021>024-251000-
NORTH CENTRAL INDIANA

CITY           SKY/WX    TMP DP  RH WIND       PRES   REMARKS
GOSHEN         CLEAR     52  50  93 CALM      30.09R FOG
LOGANSPORT +   CLEAR     50  48  93 CALM      30.10R
PERU/GRISSOM   PTCLDY    52  52 100 CALM      30.09R
ROCHESTER +    PTCLDY    54  54 100 CALM      30.09S
SOUTH BEND     CLEAR     55  50  83 CALM      30.08F
WARSAW +       CLEAR     50  50 100 CALM      30.09S

$$

INZ006>009-017-018-025>027-251000-
NORTHEAST INDIANA

CITY           SKY/WX    TMP DP  RH WIND       PRES   REMARKS
ANGOLA *+      CLOUDY    52  52 100 CALM      30.08S VSB 1/2
AUBURN +       CLEAR     52  50  93 CALM      30.09S
FORT WAYNE     PTCLDY    57  51  80 CALM      30.09R
HUNTINGTON +   CLEAR     52  51  95 CALM      30.09R

$$

INZ028-029-035-036-043>045-051>053-251000-
WEST CENTRAL INDIANA

CITY           SKY/WX    TMP DP  RH WIND       PRES   REMARKS
GREENCASTLE +  CLEAR     54  52  94 CALM      30.09R
LAFAYETTE      CLEAR     53  52  96 CALM      30.08S
TERRE HAUTE    FOG       53  51  93 CALM      30.08S VSB 1/4

$$

INZ030>032-037>040-046>048-054>057-064-065-251000-
CENTRAL INDIANA

CITY           SKY/WX    TMP DP  RH WIND       PRES   REMARKS
CP ATTERBURY + CLEAR     52  50  93 CALM      30.09R FOG
INDIANAPOLIS   CLEAR     59  52  77 CALM      30.07R
-EAGLE CREEK   CLEAR     57  54  89 CALM      30.08R
KOKOMO *+      CLEAR     52  48  87 CALM      30.10R
MARION +       CLEAR     50  49  97 CALM      30.10R
MT COMFORT *+  CLEAR     52 N/A N/A CALM      30.09R
SHELBYVILLE    CLEAR     55  51  86 CALM      30.08R
ZIONSVILLE +   CLEAR     52  49  90 CALM      30.09R FOG

$$

INZ033-034-041-042-049-050-058-059-251000-
EAST CENTRAL INDIANA

CITY           SKY/WX    TMP DP  RH WIND       PRES   REMARKS
MUNCIE         CLEAR     52  48  86 CALM      30.09R

$$

INZ060-061-067>069-081>083-085>088-251000-
SOUTHWEST INDIANA

CITY           SKY/WX    TMP DP  RH WIND       PRES   REMARKS
EVANSVILLE     CLEAR     59  56  89 CALM      30.06F
HUNTINGBURG *+ CLEAR     55  52  88 CALM      30.07S
WASHINGTON +   CLEAR     54  54 100 CALM      30.07R FOG

$$

INZ062-063-066-070>080-084-089>092-251000-
SOUTH CENTRAL AND SOUTHEAST INDIANA

CITY           SKY/WX    TMP DP  RH WIND       PRES   REMARKS
BLOOMINGTON    CLEAR     53  51  93 CALM      30.08S

$$



USA.gov is the U.S. government's official web portal to all federal, state and local government web resources and services.